{"data":{"norad_id":56748,"intl_designator":"2023-072F","name":"2023-072F","alt_names":[],"object_type":"PAYLOAD","status":"ACTIVE","operator":null,"country":"SKOR","launch_date":"2023-05-25","launch_site_code":"NSC","launch_vehicle":null,"mission":null,"orbit_class":"UNKNOWN","rcs_meters":null,"size_class":null,"mass_kg":null,"dimensions":null,"purposes":[],"wikipedia_slug":null,"has_3d_model":false,"image_url":null,"decayed_at":null,"tle_current":{"epoch":"2026-05-25T03:52:10.944192Z","epoch_age_seconds":57811,"freshness":"FRESH","line1":"1 56748U 23072F   26145.16123778  .00007837  00000+0  26519-3 0  9997","line2":"2 56748  97.5130 342.8675 0007500  97.5448 262.6645 15.30863342166257","mean_motion":15.30863342,"eccentricity":0.00075,"inclination_deg":97.513,"raan_deg":342.8675,"arg_perigee_deg":97.5448,"mean_anomaly_deg":262.6645,"bstar":0.00026519,"rev_number":16625,"period_min":94.064568697472,"perigee_km":468.09663587534,"apogee_km":478.37369412284,"semimajor_km":6851.3721649991,"source":"CELESTRAK","updated_at":"2026-05-25T13:37:59.662188Z"}}}